sat.trackr.live / text

‹ back to catalog

ONEWEB-0124

NORAD 47270 · 2020-100N

PAYLOAD ACTIVE UNKNOWN

§ Identity

Operator
Country
UK
Launch date
2020-12-18
Launch site
VOSTO
Launch vehicle
Mass (kg)
RCS (m²)

Purposes: comms

External: N2YO · Heavens-Above · Gunter

§ Orbital elements

Epoch: 2026-09-14T22:16:01.398144Z

Period
109.72 min
Inclination
87.8979°
Eccentricity
0.0002026
Mean motion
13.12442042 rev/d
Perigee alt
1,212.2 km
Apogee alt
1,215.3 km
Semi-major
7,591.9 km
B*
-1.0681e-3
RAAN
332.8486°
Arg perigee
93.0530°
Mean anomaly
267.0830°
Rev number
27,634

§ Raw data

ONEWEB-01241 47270U 20100N   26257.92779396 -.00000372  00000+0 -10681-2 0  99982 47270  87.8979 332.8486 0002026  93.0530 267.0830 13.12442042276345

JSON: /api/v1/satellites/47270 · /tle

For live sub-satellite position, see the globe view (requires WebGL).

§ Visibility from observer

Set your observer location to see the next 7 days of passes ≥ 10°. The values pass through the URL so the page stays shareable.

No JS? Fill the form by hand. The geolocation button needs JavaScript.